Location: Newark
(36.1358°N, 115.1208°W)
Time: 09:19:22
(UTC+00:00)

Explorer 7 - Visible Passes

Search period start: 28 February 2020 00:00
Search period end: 09 March 2020 00:00
Orbit: 485 x 679 km, 50.3° (Epoch: 27 February)

Date Brightness Start Highest point End Pass type
(mag) Time Alt. Az. Time Alt. Az. Time Alt. Az.
03 Mar 10.0 13:38:53 10° SSE 13:41:57 17° SE 13:45:00 10° E visible
04 Mar 9.4 13:42:30 10° S 13:46:37 27° SE 13:50:45 10° ENE visible
06 Mar 10.1 12:14:51 10° SE 12:16:14 11° SE 12:17:37 10° ESE visible
07 Mar 9.6 12:17:25 10° S 12:20:52 19° SE 12:24:20 10° E visible
08 Mar 8.8 12:21:49 13° S 12:25:33 32° SE 12:29:54 10° ENE visible
